Location: Espartignac
(45.4153°N, 1.5957°E)
Time: 10:42:36
(UTC+00:00)

Daily predictions for brighter satellites

Satellite Brightness Start Highest point End
(mag) Time Altitude Azimuth Time Altitude Azimuth Time Altitude Azimuth
MOS 1 4.3 19:48:57 10° SSE 19:54:35 73° ENE 20:00:13 10° N
Cosmos 1538 Rocket 4.0 19:49:53 10° S 19:55:03 69° ESE 20:00:12 10° NNE
CZ-4 R/B 4.5 19:53:47 10° WSW 19:55:58 14° W 19:58:10 10° WNW
IRS-1A Rocket 4.3 19:50:35 10° SSE 19:56:03 72° ENE 20:01:33 10° N
OBJECT-B 2.0 19:53:45 10° S 19:56:49 43° W 19:59:55 10° NNW
USA 186 3.6 19:57:53 10° SSW 20:00:28 28° W 20:02:54 10° NW
Cosmos 2098 Rocket 2.5 19:57:30 10° S 20:00:40 66° E 20:04:33 10° NNE
IGS 5A 3.9 19:57:05 10° SE 20:01:02 45° ENE 20:05:01 10° N
Ariane Rocket 3.0 20:01:36 10° SSE 20:06:40 82° ENE 20:11:46 10° NNW
Cosmos 1842 Rocket 4.4 20:03:31 10° NNW 20:07:54 54° W 20:12:16 10° S
Landsat 7 4.1 20:03:37 10° SE 20:08:12 51° ENE 20:12:50 10° N
Cosmos 1782 4.1 20:05:12 10° NNE 20:08:35 25° ENE 20:11:44 11° SE
Cosmos 2082 Rocket 3.2 20:06:13 10° SW 20:11:43 53° WNW 20:17:17 10° NNE
Cosmos 304 Rocket 3.8 20:08:08 10° NNW 20:12:55 68° ENE 20:17:40 10° SSE
Meteor 2-8 Rocket 4.5 20:08:43 10° N 20:14:54 88° E 20:21:01 10° S
Cosmos 2278 4.4 20:13:01 10° NW 20:18:32 55° WSW 20:24:02 10° S
Cosmos 2360 Rocket 3.4 20:14:25 10° N 20:19:20 29° NE 20:23:55 11° ESE
ATLAS 3B R/B 3.2 20:12:20 10° NW 20:19:21 62° WSW 20:26:38 10° SSE
Cosmos 1606 3.8 20:16:22 10° NNW 20:19:59 44° W 20:23:36 10° SSW
ATLAS 2AS CENTAUR R/B 4.2 20:12:59 10° WSW 20:20:32 46° NW 20:27:53 10° NNE
Resurs 1-3 4.0 20:16:11 10° S 20:20:32 64° WSW 20:24:55 10° NNW
MetOp-B 4.4 20:18:50 10° SSE 20:24:04 57° ENE 20:29:18 10° N
Cosmos 1092 Rocket 4.1 20:19:39 10° S 20:25:48 63° E 20:32:03 10° NNE
Cosmos 2221 4.4 20:23:36 10° NNW 20:27:24 31° W 20:31:13 10° SSW
ISS -2.3 20:26:52 10° WNW 20:29:49 28° SW 20:32:13 13° SSE
NOSS 2-1 (C) 3.7 20:27:35 10° S 20:30:30 27° ESE 20:33:21 10° ENE
Cosmos 2151 3.0 20:26:26 10° S 20:30:41 89° W 20:34:59 10° N
Cosmos 2026 Rocket 4.1 20:28:38 10° S 20:34:49 59° E 20:40:57 10° NNE
ERS-2 2.4 20:31:17 10° N 20:34:56 72° WNW 20:38:33 10° SSW
Cosmos 2084 3.5 20:32:04 10° SSW 20:35:56 46° ESE 20:39:55 10° NE
COSMOS 2455 4.2 20:34:50 15° SE 20:36:41 17° ESE 20:40:27 10° ENE
Cosmos 158 Rocket 4.3 20:32:14 10° SSW 20:37:23 71° WNW 20:42:43 10° NNE
NOSS 2-1 (D) 3.4 20:35:09 10° S 20:38:13 33° ESE 20:41:14 10° NE
Cosmos 1812 3.9 20:35:23 10° NNE 20:38:41 26° ENE 20:40:31 18° ESE
Cosmos 2333 Rocket 3.8 20:35:49 10° N 20:40:16 23° NE 20:44:24 11° E
Cosmos 1980 Rocket 3.9 20:35:54 10° NW 20:40:41 29° WSW 20:45:29 10° SSW
GP-B 3.4 20:36:25 10° NNE 20:40:44 48° E 20:44:01 16° SSE
Cosmos 923 Rocket 4.0 20:35:51 10° SSW 20:41:11 77° ESE 20:46:32 10° NNE
BREEZE-M DEB (TANK) 3.7 20:38:35 10° WNW 20:41:57 71° SSW 20:49:45 16° SE
SPOT 1/Viking Rocket 3.6 20:38:26 14° SSE 20:42:59 73° ENE 20:48:12 10° N
ERS-1 Rocket 3.9 20:40:25 17° ESE 20:43:38 34° ENE 20:48:09 10° N
USA 245 3.7 20:42:06 17° SSE 20:45:44 59° ENE 20:49:36 10° N
SL-27 R/B 3.5 20:44:42 22° SE 20:45:46 26° ESE 20:48:51 10° NE
Okean 3 Rocket 3.8 20:48:05 16° SSE 20:51:31 51° E 20:55:54 10° NNE
USA 276 2.9 20:48:59 10° WNW 20:51:58 38° SW 20:53:10 26° SSE
Cosmos 2056 Rocket 3.9 20:47:46 10° NNW 20:53:01 52° ENE 20:56:16 22° SE
Cosmos 2322 Rocket 2.2 20:48:20 10° NNW 20:54:00 81° ENE 20:57:55 21° SSE
Meteor 1-26 Rocket 4.4 20:53:07 10° NNW 20:59:02 77° W 21:04:07 13° S
CARTOSAT-1 3.6 20:59:31 24° SSE 21:02:03 67° ENE 21:06:21 10° N
Cosmos 1428 Rocket 4.5 20:56:15 10° S 21:02:24 86° W 21:08:33 10° N
Spot 2 Rocket 3.5 21:03:04 22° SSE 21:06:26 76° ENE 21:11:33 10° N
Cosmos 2219 Rocket 3.4 21:06:24 10° N 21:11:19 30° NE 21:14:26 18° E
Resurs 01 Rocket 3.2 21:09:22 10° SSW 21:13:22 32° W 21:17:23 10° NNW
BREEZE M DEB (TANK) 3.8 21:10:48 10° SW 21:14:22 57° SE 21:33:39 10° ENE
Cosmos 1371 Rocket 4.0 21:09:28 10° NNW 21:14:53 86° ENE 21:17:55 27° SSE
Cosmos 1680 Rocket 3.7 21:09:54 10° SSW 21:15:10 74° WNW 21:20:27 10° NNE
Cosmos 2112 Rocket 4.0 21:10:21 10° SSW 21:15:40 84° WNW 21:20:58 10° NNE
Cosmos 1515 Rocket 3.9 21:14:47 10° N 21:19:06 49° ENE 21:20:37 34° SE
Cosmos 1151 Rocket 3.2 21:14:53 10° NNW 21:19:15 70° W 21:21:47 24° S
Terra 2.2 21:19:00 30° SE 21:21:01 51° ENE 21:25:38 10° N
Cosmos 1553 Rocket 3.9 21:16:28 10° N 21:22:35 84° E 21:26:23 25° S
Cosmos 2266 Rocket 4.4 21:19:57 27° SE 21:22:47 43° E 21:28:37 10° NNE
SL-16 R/B 3.0 21:19:10 10° NW 21:24:34 46° WSW 21:28:20 19° S
CZ-2C R/B 4.3 21:23:36 10° N 21:28:01 55° WNW 21:32:20 10° SSW
ATLAS 5 CENTAUR R/B 3.5 21:24:10 10° NNW 21:29:00 33° NE 21:33:05 16° E
Cosmos 1809 Rocket 4.5 21:23:28 12° S 21:29:17 82° W 21:35:27 10° N
Cosmos 2333 4.5 21:25:16 10° NNW 21:30:48 56° ENE 21:33:17 31° ESE
Cosmos 1766 Rocket 4.1 21:27:54 14° SSW 21:31:37 57° WNW 21:35:56 10° N
Cosmos 1328 Rocket 3.8 21:28:38 10° NNW 21:33:03 66° W 21:35:09 30° S
Cosmos 2228 Rocket 4.1 21:30:34 10° NNE 21:34:28 30° ENE 21:35:17 28° E
Cosmos 2237 4.4 21:29:11 10° NNW 21:34:50 65° WSW 21:37:45 29° S
NOSS 2-1 (E) 3.3 21:33:07 10° SW 21:36:22 60° NW 21:39:46 10° NNE
SPOT 5 2.6 21:36:48 37° S 21:38:27 78° WSW 21:42:54 10° NNW
ARIANE 5 R/B 2.9 21:36:31 31° S 21:38:33 63° WSW 21:42:58 10° NNW
COSMOS 2428 3.5 21:33:41 10° NNW 21:39:02 39° NE 21:41:31 26° ESE
Gbstr 26 Del rocket 4.1 21:37:11 10° W 21:40:20 25° SW 21:40:43 24° SSW
Cosmos 1862 3.4 21:39:48 32° SSW 21:41:30 71° W 21:45:29 10° N
NOSS 3-1 (C) 4.1 21:37:04 10° NW 21:44:34 78° NE 21:49:23 30° SE
Cosmos 292 Rocket 3.7 21:40:53 10° NNW 21:45:42 90° SE 21:47:10 45° SSE
Cosmos 1048 Rocket 4.5 21:48:39 37° ESE 21:49:00 37° ESE 21:53:41 10° NE
Meteor 2-6 Rocket 4.4 21:44:02 10° NNW 21:49:22 63° W 21:52:01 30° SSW
Meteor 2-21 Rocket 4.5 21:50:10 23° SSW 21:54:12 82° W 22:00:24 10° N
S3M 4.0 21:48:19 10° N 21:54:45 84° W 21:57:51 33° S
Cosmos 1655 Rocket 4.0 21:54:12 29° S 21:57:42 87° E 22:04:09 10° N
COSMOS 2487 3.3 22:00:10 39° NE 22:00:10 39° NE 22:02:31 10° NNE
USA 229 DEB 4.1 21:53:12 10° NW 22:00:28 65° NE 22:04:27 30° ESE
USA 229 4.1 21:53:18 10° NW 22:00:34 64° NE 22:04:33 30° ESE
Cosmos 972 Rocket 4.0 21:59:17 47° SSE 22:00:34 62° ESE 22:05:30 10° NNE
Cosmos 1805 Rocket 3.9 22:02:11 46° E 22:02:14 46° E 22:06:29 10° NNE
Cosmos 1420 Rocket 4.3 21:57:27 10° NNW 22:02:42 62° WSW 22:04:27 40° SSW
Cosmos 2360 Rocket 2.7 21:58:09 10° NW 22:03:34 49° WSW 22:05:41 33° SSW
Cosmos 1174 4.3 22:04:18 10° NW 22:06:29 37° WNW 22:06:29 37° WNW
Cosmos 1500 Rocket 3.6 22:11:54 55° SSW 22:12:47 77° W 22:17:15 10° N
USA 267 3.5 22:07:36 10° ENE 22:13:49 44° SE 22:14:48 41° SSE
NOSS 3-1 (A) 4.1 22:13:32 10° NW 22:21:03 81° NE 22:25:00 37° SE
COSMOS 2455 2.8 22:17:53 23° SW 22:21:51 84° WNW 22:27:55 10° NNE
ERS-1 Rocket 4.3 22:20:25 24° SW 22:22:25 32° W 22:26:55 10° NNW
Lacrosse 5 3.6 22:25:49 20° E 22:25:49 20° E 22:27:39 10° ENE
Meteor 1-20 Rocket 4.2 22:23:03 53° SE 22:24:01 61° E 22:29:39 10° NNE
Meteor 1-27 Rocket 3.8 22:18:25 10° NNW 22:24:04 71° W 22:25:47 46° SSW
Cosmos 2333 Rocket 2.3 22:19:27 10° NNW 22:25:05 69° WSW 22:26:23 51° S
Cosmos 1452 Rocket 3.5 22:20:01 10° NNW 22:25:17 77° WSW 22:26:16 59° S
H-2A R/B 3.7 22:22:18 10° N 22:26:29 66° WNW 22:27:05 57° WSW
COBE Rocket 3.9 22:26:51 57° E 22:27:14 59° ENE 22:31:52 10° N
BREEZE-M R/B 4.1 22:26:04 10° WSW 22:31:56 25° ENE 22:33:52 10° ENE
Cosmos 2297 Rocket 3.5 22:32:07 25° E 22:32:07 25° E 22:35:59 10° NE
Cosmos 2322 3.9 22:26:31 10° NNW 22:32:11 64° WSW 22:33:25 51° SSW
Cosmos 1743 Rocket 4.3 22:32:53 39° WSW 22:33:56 47° WNW 22:38:15 10° N
Sich 1 3.0 22:34:10 76° ENE 22:34:10 76° ENE 22:38:20 10° NNE
Cosmos 2322 Rocket 4.3 22:34:05 10° WNW 22:37:16 16° W 22:39:44 12° SW
Cosmos 2237 Rocket 3.0 22:32:29 10° NNW 22:37:52 42° NE 22:39:29 34° E
Cosmos 1633 Rocket 3.8 22:44:04 41° ENE 22:44:04 41° ENE 22:47:31 10° NNE
BREEZE-M DEB (TANK) 3.3 22:39:32 10° WNW 22:42:20 34° WNW 22:42:20 34° WNW
Cosmos 2227 Rocket 3.6 22:44:30 24° E 22:44:30 24° E 22:48:08 10° NE
Cosmos 1110 Rocket 3.8 22:42:14 10° NNW 22:47:36 87° ENE 22:48:10 72° SSE
USA 234 3.9 22:42:59 17° E 22:47:54 53° NNE 22:54:14 10° NW
APEX 4.2 22:48:05 62° SSE 22:48:54 70° ESE 22:55:30 10° NNE
Cosmos 1331 Rocket 3.8 22:44:49 10° NNW 22:50:04 83° ENE 22:50:32 74° SE
Cosmos 1666 Rocket 3.8 22:50:45 61° ENE 22:50:45 61° ENE 22:54:43 10° NNE
Cosmos 2219 Rocket 2.6 22:50:07 10° NW 22:55:28 47° WSW 22:56:08 45° SW
Gblst 52 Del rocket 4.5 22:50:45 10° WNW 22:57:00 78° SSW 22:58:44 53° SE
Terra 3.7 22:57:53 18° WSW 22:59:02 19° W 23:02:28 10° NW
Spot 4 3.7 23:03:05 81° WSW 23:03:08 81° WSW 23:08:00 10° NNW
SL-16 R/B 3.7 23:02:24 10° N 23:07:13 28° NE 23:09:38 21° E
Meteor 1-25 Rocket 4.4 23:06:07 51° SW 23:07:17 64° WNW 23:12:50 10° N
Meteor 1-18 Rocket 4.1 23:04:11 10° N 23:10:03 89° ENE 23:10:44 71° SSE
SL-08 R/B 4.3 23:11:22 64° SSE 23:12:22 81° E 23:18:32 10° N
ATLAS 5 CENTAUR R/B 2.4 23:08:24 10° NW 23:14:01 63° SW 23:14:35 60° SSW
Cosmos 1862 Rocket 3.8 23:10:20 10° N 23:14:06 65° N 23:14:06 65° N
Okean 1 4.1 23:11:57 10° NNW 23:15:05 47° NW 23:15:05 47° NW
SL-08 ROCKET BODY 4.4 23:19:00 61° SSW 23:20:07 80° W 23:26:19 10° N
COSMOS 2428 3.6 23:18:06 10° NW 23:23:14 36° WSW 23:23:31 35° WSW
NOSS 2-2 (C) 4.5 23:18:06 10° NW 23:23:25 73° NE 23:25:11 50° ESE
Cosmos 1707 Rocket 4.4 23:19:21 10° NNW 23:23:04 43° WNW 23:23:04 43° WNW
Meteor 2-4 Rocket 3.7 23:18:22 10° N 23:24:20 81° ENE 23:24:59 70° SE
Cosmos 1666 4.0 23:26:25 38° NNE 23:26:25 38° NNE 23:28:57 10° NNE
Meteor 1-19 Rocket 4.4 23:22:46 10° NNW 23:28:11 54° W 23:28:36 53° WSW
Cosmos 1709 Rocket 4.4 23:30:39 46° ESE 23:31:27 48° E 23:37:32 10° NNE
ALOS 2 3.1 23:36:46 54° WNW 23:36:46 54° WNW 23:40:27 10° NNW
Meteor 1-5 Rocket 4.1 23:35:45 75° SSE 23:36:11 81° E 23:42:06 10° NNE
Cosmos 909 Rocket 4.2 23:36:15 56° SE 23:36:55 59° ESE 23:44:20 10° NE
Cosmos 1745 Rocket 3.8 23:39:17 68° S 23:40:11 89° W 23:46:32 10° N
Cosmos 2219 3.1 23:42:23 77° SE 23:42:35 78° ESE 23:48:21 10° NNE
Cosmos 1302 Rocket 4.1 23:40:38 10° NNW 23:45:34 64° W 23:45:34 64° W
Cosmos 1269 Rocket 4.0 23:47:42 72° W 23:47:55 73° WNW 23:53:14 10° NNE
Cosmos 1386 Rocket 4.5 23:47:47 63° SSW 23:48:52 79° W 23:55:18 10° N
Timation 1 Rocket 4.3 23:51:21 67° SE 23:51:32 67° ESE 23:57:30 10° NNE
Meteor 1-13 Rocket 4.3 23:46:10 10° N 23:51:55 66° ENE 23:52:26 62° ESE
Meteor 1-14 Rocket 4.4 23:51:46 56° WSW 23:52:24 60° WNW 23:58:01 10° N
